www.pogodaiklimat.ru

Погода и климат >> Архив погоды >> Катар >> Абу Самба


ПОГОДА в Абу Самба

  • Прогноз погоды в Абу Самба
  • Монитор погоды в Абу Самба

АРХИВ ПОГОДЫ в Абу Самба

Время (UTC), дата Ветер
(напр.,м/с)
 
Видим.   Явления Облачность Т
(С)
Тd
(С)
f
(%)
Тe
(С)
Тes
(С)
Комфортность P
(гПа)
Po
(гПа)
Тmin
(С)
Tmax
(С)
R
(мм)
R24
(мм)
S
(см)
21 17.05 штиль 0 20 км н/о +29.6 +20.0 56 +36 +36 очень
душно
1005.2 1004.6
00 18.05 штиль 0 16 км н/о +27.7 +21.5 69 +35 +35 очень
душно
1006.5 1005.9
06 19.05 СВ 19 19 км н/о +32.2 +16.5 39 +35 +35 очень
душно
1007.5 1006.9 +26.0
09 19.05 СВ 17 18 км н/о +34.4 +16.5 34 +37 +37 очень
душно
1007.5 1006.9
12 19.05 СЗ 5 16 км н/о +34.4 +18.5 39 +39 +39 очень
душно
1005.5 1004.9
15 19.05 С 7 20 км н/о +32.1 +18.4 44 +37 +37 очень
душно
1005.3 1004.7
18 19.05 СВ 4 20 км н/о +28.7 +13.5 39 +30 +30 жарко 1007.3 1006.7 +35.3
21 19.05 С 4 20 км н/о +28.2 +17.1 51 +32 +32 душно 1007.5 1006.9
00 20.05 СЗ 4 20 км н/о +27.2 +20.1 65 +33 +33 очень
душно
1007.0 1006.4
03 20.05 штиль 0 20 км н/о +26.8 +19.4 64 +32 +32 очень
душно
1007.8 1007.2
06 20.05 СЗ 8 20 км н/о +30.7 +18.6 48 +36 +36 очень
душно
1009.1 1008.5 +24.3
09 20.05 СЗ 9 20 км н/о +32.7 +22.7 56 +43 +43 опасность
перегрева
1008.5 1007.9
12 20.05 СЗ 12 20 км н/о +32.3 +21.1 52 +40 +40 очень
душно
1006.7 1006.1
15 20.05 СЗ 11 20 км н/о +30.8 +22.4 61 +40 +40 очень
душно
1006.3 1005.7
18 20.05 С 2 15 км н/о +29.6 +25.5 79 +44 +44 опасность
перегрева
1008.4 1007.8 +33.2
21 20.05 СЗ 13 3000 м н/о +29.5 +20.9 60 +37 +37 очень
душно
1009.4 1008.8
00 21.05 штиль 0 3000 м н/о +27.4 +15.2 47 +30 +30 жарко 1008.4 1007.8
03 21.05 ЮВ 3 4000 м н/о +27.8 +14.3 44 +30 +30 жарко 1009.1 1008.5
06 21.05 штиль 0 6000 м н/о +32.3 +16.3 38 +35 +35 очень
душно
1010.8 1010.2 +27.4
09 21.05 СЗ 9 6000 м н/о +32.7 +21.1 51 +40 +40 очень
душно
1011.0 1010.4
12 21.05 С 8 10 км н/о +33.9 +22.3 51 +43 +43 опасность
перегрева
1009.2 1008.6
15 21.05 штиль 0 19 км н/о +33.3 +19.0 43 +38 +38 очень
душно
1008.9 1008.3
18 21.05 В 3 20 км н/о +31.5 +14.8 36 +33 +33 жарко 1010.5 1009.9 +35.6
21 21.05 штиль 0 19 км н/о +27.4 +16.8 52 +31 +31 душно 1010.5 1009.9
00 22.05 штиль 0 17 км н/о +26.2 +18.0 61 +31 +31 очень
душно
1009.9 1009.3
06 23.05 ЮЗ 8 20 км н/о +38.5 +4.1 12 +35 +35 очень
жарко
1009.6 1009.0 +23.2
09 23.05 С 4 19 км н/о +39.0 +12.1 20 +38 +38 очень
жарко
1008.1 1007.5
12 23.05 С 5 20 км н/о +38.6 +18.4 31 +42 +42 опасность
перегрева
1006.4 1005.8
15 23.05 С 6 20 км н/о +34.2 +23.4 53 +45 +45 опасность
перегрева
1005.8 1005.2
18 23.05 СВ 5 20 км н/о +31.4 +8.7 24 +30 +30 жарко 1007.8 1007.2 +41.1
21 23.05 штиль 0 20 км н/о +29.0 +11.5 34 +30 +30 жарко 1008.4 1007.8
00 24.05 штиль 0 18 км н/о +23.9 +11.0 44 +25 +25 комфорт 1007.5 1006.9

 

Местоположение метеостанции Абу Самба (Катар): широта 24.75 долгота 50.82 высота над уровнем моря 8 м.

В архиве по умолчанию представлена погода в Абу Самба за последнюю неделю. Архивные данные за месяц целиком и за предыдущие месяцы, начиная с января 2011 года, Вы можете получить, выбрав интересующий диапазон дат из раскрывающегося списка и нажав кнопку "Ввод!".


*Определитесь, кто Вы:
робот инопланетянин человек

Внимание! Время в таблицах - всемирное. Для получения местного времени необходимо прибавить поправку, которая равна 4 ч.

Смотрите также архив погоды в соседних городах и на ближайших метеорологических станциях:

Погода в Духане (Катар) (73 км)
Погода в Доха порту (Катар) (80 км)
Погода в Дохе (Катар) (94 км)
Погода в Аэропорту Хамад (Катар) (98 км)
Погода в Эль-Хуфуфе (Саудовская Аравия) (148 км)
Погода в Бахрейне (Бахрейн) (170 км)
Погода в Дахране (Саудовская Аравия) (181 км)
Погода в Эд-Даммаме (Саудовская Аравия) (214 км)
Погода в Бендер-Дейере (Иран) (360 км)
Погода в Абу-Даби Батин аэропорту (ОАЭ) (370 км)

Пояснения к столбцам:

Ветер - указаны скорость ветра в м/с - средняя за 10 мин, порывы в срок и между сроками (в фигурных скобках) и направление, откуда дует ветер: С - северный, СВ - северо-восточный, В - восточный, ЮВ - юго-восточный, Ю - южный, ЮЗ - юго-западный, З - западный, СЗ - северо-западный.
Видимость - горизонтальная дальность видимости в метрах или километрах. При видимости от 1 до 10 км при отсутствии осадков обычно наблюдается дымка, при ухудшении видимости до 1 км и менее - туман. В сухую погоду видимость может ухудшаться дымом, пылью или мглою.
Явления - указаны атмосферные явления, наблюдавшиеся в срок или в последний час перед сроком; фигурными скобками обозначены явления, наблюдавшиеся между сроками (за 1-3 часа до срока); квадратными скобками обозначены град или гололедные отложения с указанием их диаметра в мм.
Облачность - указаны через наклонную черту общая и нижняя облачность в баллах и высота нижней границы облаков в метрах; квадратными скобками обозначены формы облаков: Ci - перистые, Cs - перисто-слоистые, Cc - перисто-кучевые, Ac - высококучевые, As - высокослоистые, Sc - слоисто-кучевые, Ns - слоисто-дождевые, Cu - кучевые, Cb - кучево-дождевые. Подробнее классификацию облаков см. в Атласе облаков (PDF).
T - Температура воздуха - температура, измеренная на высоте 2 м над землей.
Td - Температура точки росы - температура, при понижении до которой содержащийся в воздухе водяной пар достигнет насыщения.
f - Относительная влажность воздуха - влажноcть воздуха, измеренная на высоте 2 м над землей.
Te - Эффективная температура - температура, которую ощущает одетый по сезону человек в тени. Характеристика душности погоды. При расчете учитывается влияние влажности воздуха и скорости ветра на теплоощущения человека.
Tes - Эффективная температура на солнце - температура, которую ощущает человек, с поправкой на солнечный нагрев. Характеристика знойности погоды. Зависит от высоты солнца над горизонтом, облачности и скорости ветра. Ночью, в пасмурную погоду, а также при ветре 12 м/с и более поправка равна нулю.
P - Атмосферное давление - приведенное к уровню моря атмосферное давление.
Po - Атмосферное давление - измеренное на уровне метеостанции атмосферное давление.
Tmin - Минимальная температура - минимум температуры воздуха на высоте 2 м над землей.
Tmax - Максимальная температура - максимум температуры воздуха на высоте 2 м над землей.
R - Количество осадков - Количество выпавших осадков за период времени, мм. При наведении курсора мыши на число - период времени, за который выпало указанное количество осадков.
R24 - Количество осадков - Количество выпавших осадков за 24 часа, мм.
S - Снежный покров - Высота снежного покрова, см. При наведении курсора мыши на число - состояние снежного покрова и степень покрытия местности в баллах.